This demonstration page uses our WeatherBlox Daily Observations layout. Learn more.

Left ArrowRight Arrow

Hourly Observations for September 28, 2017

Temp ( °F °C ) Dew Point ( °F °C ) Humidity (%) Winds ( mph kmh ) Pressure ( in mb ) Visibility ( mi km ) Precip ( " mm )
12:51 am 00:51 Mostly Cloudy 72 22.2 55 12.8 55 55 E 12 19 29.85 1011 10 16 N/A
1:51 am 01:51 Partly Cloudy 71 21.7 55 12.8 57 57 E 12 19 29.86 1011 10 16 N/A
2:51 am 02:51 Cloudy 71 21.7 56 13.3 59 59 ESE 10 17 29.85 1011 10 16 N/A
3:51 am 03:51 Cloudy 71 21.7 56 13.3 59 59 ESE 10 17 29.86 1011 10 16 N/A
4:51 am 04:51 Cloudy 70 21.1 55 12.8 59 59 E 7 11 29.87 1012 10 16 N/A
5:51 am 05:51 Cloudy 70 21.1 55 12.8 59 59 E 10 17 29.89 1012 10 16 N/A
6:51 am 06:51 Cloudy 71 21.7 55 12.8 57 57 ESE 8 13 29.92 1013 10 16 N/A
7:51 am 07:51 Mostly Cloudy 71 21.7 57 13.9 61 61 SSE 5 7 29.93 1014 10 16 N/A
8:51 am 08:51 Cloudy 72 22.2 58 14.4 61 61 S 8 13 29.93 1014 10 16 N/A
9:51 am 09:51 Cloudy 75 23.9 57 13.9 54 54 SSE 14 22 29.92 1013 10 16 N/A
10:51 am 10:51 Mostly Sunny 79 26.1 57 13.9 47 47 S 13 20 29.90 1013 10 16 N/A
11:51 am 11:51 Mostly Sunny 81 27.2 57 13.9 44 44 SSE 12 19 29.88 1012 10 16 N/A
12:51 pm 12:51 Sunny 83 28.3 54 12.2 37 37 SSE 8 13 29.84 1010 10 16 N/A
1:51 pm 13:51 Sunny 85 29.4 53 11.7 33 33 SSE 13 20 29.81 1010 10 16 N/A
2:51 pm 14:51 Sunny 86 30 51 10.6 30 30 SE 8 13 29.79 1009 10 16 N/A
3:51 pm 15:51 Sunny 86 30 48 8.9 27 27 S 8 13 29.77 1008 10 16 N/A
4:51 pm 16:51 Sunny 86 30 50 10 29 29 SSE 6 9 29.76 1008 10 16 N/A
5:51 pm 17:51 Sunny 83 28.3 50 10 32 32 ESE 6 9 29.77 1008 10 16 N/A
6:51 pm 18:51 Clear 81 27.2 53 11.7 38 38 ESE 10 17 29.79 1009 10 16 N/A
7:51 pm 19:51 Clear 77 25 54 12.2 45 45 E 8 13 29.82 1010 10 16 N/A
8:51 pm 20:51 Clear 75 23.9 55 12.8 50 50 E 7 11 29.85 1011 10 16 N/A
9:51 pm 21:51 Clear 74 23.3 56 13.3 54 54 SE 6 9 29.85 1011 10 16 N/A
10:51 pm 22:51 Clear 72 22.2 57 13.9 59 59 ESE 7 11 29.86 1011 10 16 N/A
11:51 pm 23:51 Clear 71 21.7 57 13.9 61 61 ESE 6 9 29.86 1011 10 16 N/A

Powered by AerisWeather